When you browse on this site, cookies collect data to enhance your experience and personalize the content and advertising you see.
Visit our Privacy Policy to learn more. By continuing to use the site, you agree to this use of cookies and data.
  • Em Portugal
  • Lista de países
  • Para 7 dias
  • Temperatura da água
  • Mapas de satélite
  • Mapa do tempo
  • Widgets de tempo
  • user-avatar
    Iniciar Sessão

    Previsão horária em Yakovlevka

    Hoje, 20 Maio, Segunda-feira

    Tempo Temperatura Precipitação Vento Pressão Humidade
    00:00 +16°C° 0.2 mm 2 m/s 741 mmHg 80%
    01:00 +14°C° 0 mm 3 m/s 740 mmHg 80%
    02:00 +14°C° 0 mm 3 m/s 740 mmHg 80%
    03:00 +14°C° 0 mm 3 m/s 738 mmHg 80%
    04:00 +14°C° 0.8 mm 3 m/s 738 mmHg 84%
    05:00 +14°C° 0.8 mm 3 m/s 737 mmHg 87%
    06:00 +14°C° 0.8 mm 3 m/s 736 mmHg 90%
    07:00 +16°C° 1.4 mm 3 m/s 735 mmHg 91%
    08:00 +16°C° 1.4 mm 3 m/s 735 mmHg 91%
    09:00 +18°C° 0 mm 1 m/s 734 mmHg 90%
    10:00 +17°C° 1.7 mm 2 m/s 734 mmHg 91%
    11:00 +16°C° 1.7 mm 2 m/s 733 mmHg 92%
    12:00 +16°C° 1.7 mm 3 m/s 733 mmHg 93%
    13:00 +16°C° 2 mm 3 m/s 733 mmHg 93%
    14:00 +16°C° 2 mm 2 m/s 733 mmHg 94%
    15:00 +18°C° 0 mm 1 m/s 732 mmHg 96%
    16:00 +16°C° 1.1 mm 1 m/s 732 mmHg 94%
    17:00 +16°C° 1.1 mm 2 m/s 732 mmHg 93%
    18:00 +16°C° 1.1 mm 2 m/s 732 mmHg 92%
    19:00 +15°C° 0 mm 2 m/s 732 mmHg 92%
    20:00 +14°C° 0 mm 2 m/s 732 mmHg 93%
    21:00 +12°C° 0 mm 2 m/s 732 mmHg 93%
    22:00 +12°C° 0 mm 2 m/s 732 mmHg 94%
    23:00 +10°C° 0 mm 2 m/s 732 mmHg 95%

    Amanhã, 21 Maio, Terça-feira

    Tempo Temperatura Precipitação Vento Pressão Humidade
    00:00 +9°C° 0 mm 2 m/s 733 mmHg 96%
    01:00 +9°C° 0 mm 2 m/s 732 mmHg 96%
    02:00 +8°C° 0 mm 2 m/s 732 mmHg 96%
    03:00 +8°C° 0 mm 2 m/s 732 mmHg 96%
    04:00 +8°C° 0 mm 2 m/s 732 mmHg 94%
    05:00 +9°C° 0 mm 2 m/s 732 mmHg 92%
    06:00 +9°C° 0 mm 2 m/s 732 mmHg 90%
    07:00 +11°C° 0 mm 3 m/s 732 mmHg 76%
    08:00 +13°C° 0 mm 4 m/s 732 mmHg 63%
    09:00 +16°C° 0 mm 5 m/s 732 mmHg 50%
    10:00 +17°C° 0.1 mm 5 m/s 732 mmHg 47%
    11:00 +19°C° 0.1 mm 5 m/s 731 mmHg 44%
    12:00 +20°C° 0.1 mm 5 m/s 731 mmHg 41%
    13:00 +20°C° 0 mm 5 m/s 731 mmHg 38%
    14:00 +21°C° 0 mm 5 m/s 731 mmHg 36%
    15:00 +21°C° 0 mm 6 m/s 731 mmHg 34%
    16:00 +20°C° 0 mm 5 m/s 731 mmHg 39%
    17:00 +19°C° 0 mm 4 m/s 731 mmHg 44%
    18:00 +18°C° 0 mm 3 m/s 731 mmHg 49%
    19:00 +16°C° 0 mm 3 m/s 732 mmHg 55%
    20:00 +14°C° 0 mm 2 m/s 732 mmHg 61%
    21:00 +12°C° 0 mm 2 m/s 732 mmHg 67%
    22:00 +10°C° 0 mm 2 m/s 732 mmHg 71%
    23:00 +9°C° 0 mm 2 m/s 732 mmHg 75%

    Depois de amanhã, 22 Maio, Quarta-feira

    Tempo Temperatura Precipitação Vento Pressão Humidade
    00:00 +8°C° 0 mm 2 m/s 732 mmHg 80%
    01:00 +8°C° 0 mm 2 m/s 732 mmHg 83%
    02:00 +7°C° 0 mm 2 m/s 732 mmHg 86%
    03:00 +7°C° 0 mm 2 m/s 732 mmHg 89%
    04:00 +8°C° 0 mm 2 m/s 732 mmHg 86%
    05:00 +9°C° 0 mm 2 m/s 732 mmHg 83%
    06:00 +9°C° 0 mm 2 m/s 732 mmHg 79%
    07:00 +12°C° 0.1 mm 2 m/s 732 mmHg 75%
    08:00 +12°C° 0.1 mm 3 m/s 732 mmHg 71%
    09:00 +14°C° 0.1 mm 4 m/s 733 mmHg 67%
    10:00 +14°C° 0.3 mm 4 m/s 733 mmHg 66%
    11:00 +15°C° 0.3 mm 4 m/s 733 mmHg 64%
    12:00 +17°C° 0.3 mm 4 m/s 733 mmHg 62%
    13:00 +15°C° 0.6 mm 4 m/s 732 mmHg 67%
    14:00 +15°C° 0.6 mm 4 m/s 732 mmHg 71%
    15:00 +15°C° 0.6 mm 4 m/s 732 mmHg 75%
    16:00 +15°C° 0.5 mm 4 m/s 732 mmHg 77%
    17:00 +14°C° 0.5 mm 3 m/s 733 mmHg 78%
    18:00 +14°C° 0.5 mm 3 m/s 733 mmHg 80%
    19:00 +13°C° 0.3 mm 3 m/s 734 mmHg 85%
    20:00 +12°C° 0.3 mm 2 m/s 734 mmHg 89%
    21:00 +10°C° 0.3 mm 2 m/s 735 mmHg 94%
    22:00 +9°C° 0 mm 2 m/s 735 mmHg 94%
    23:00 +9°C° 0 mm 2 m/s 736 mmHg 95%

    23 Maio, Quinta-feira

    Tempo Temperatura Precipitação Vento Pressão Humidade
    00:00 +8°C° 0 mm 2 m/s 736 mmHg 96%
    01:00 +8°C° 0 mm 2 m/s 736 mmHg 96%
    02:00 +9°C° 0 mm 1 m/s 736 mmHg 97%
    03:00 +8°C° 0 mm 1 m/s 736 mmHg 97%
    04:00 +9°C° 0 mm 1 m/s 737 mmHg 96%
    05:00 +9°C° 0 mm 1 m/s 737 mmHg 95%
    06:00 +10°C° 0 mm 1 m/s 738 mmHg 94%
    07:00 +12°C° 0 mm 1 m/s 738 mmHg 85%
    08:00 +14°C° 0 mm 1 m/s 738 mmHg 76%
    09:00 +16°C° 0 mm 1 m/s 739 mmHg 67%
    10:00 +17°C° 0.1 mm 2 m/s 739 mmHg 64%
    11:00 +18°C° 0.1 mm 2 m/s 739 mmHg 61%
    12:00 +19°C° 0.1 mm 3 m/s 739 mmHg 58%
    13:00 +20°C° 0.1 mm 3 m/s 739 mmHg 55%
    14:00 +20°C° 0.1 mm 3 m/s 739 mmHg 52%
    15:00 +21°C° 0.1 mm 4 m/s 739 mmHg 49%
    16:00 +20°C° 0 mm 3 m/s 739 mmHg 53%
    17:00 +20°C° 0 mm 3 m/s 739 mmHg 57%
    18:00 +19°C° 0 mm 2 m/s 739 mmHg 61%
    19:00 +18°C° 0 mm 1 m/s 740 mmHg 70%
    20:00 +15°C° 0 mm 1 m/s 740 mmHg 79%
    21:00 +11°C° 0 mm 0 m/s 741 mmHg 88%
    22:00 +12°C° 0 mm 1 m/s 741 mmHg 89%
    23:00 +12°C° 0 mm 1 m/s 741 mmHg 90%

    24 Maio, Sexta-feira

    Tempo Temperatura Precipitação Vento Pressão Humidade
    00:00 +11°C° 0 mm 1 m/s 742 mmHg 91%
    01:00 +11°C° 0 mm 1 m/s 742 mmHg 92%
    02:00 +11°C° 0 mm 1 m/s 742 mmHg 92%
    03:00 +10°C° 0 mm 1 m/s 742 mmHg 93%
    04:00 +11°C° 0 mm 1 m/s 742 mmHg 90%
    05:00 +12°C° 0 mm 1 m/s 742 mmHg 87%
    06:00 +13°C° 0 mm 1 m/s 743 mmHg 84%
    07:00 +16°C° 0 mm 1 m/s 743 mmHg 72%
    08:00 +20°C° 0 mm 1 m/s 743 mmHg 61%
    09:00 +23°C° 0 mm 1 m/s 743 mmHg 49%
    10:00 +25°C° 0 mm 1 m/s 743 mmHg 44%
    11:00 +26°C° 0 mm 1 m/s 742 mmHg 39%
    12:00 +28°C° 0 mm 1 m/s 742 mmHg 34%
    13:00 +28°C° 0 mm 1 m/s 742 mmHg 33%
    14:00 +29°C° 0 mm 1 m/s 741 mmHg 31%
    15:00 +29°C° 0 mm 1 m/s 741 mmHg 30%
    16:00 +28°C° 0 mm 1 m/s 741 mmHg 37%
    17:00 +27°C° 0 mm 2 m/s 741 mmHg 44%
    18:00 +25°C° 0 mm 2 m/s 740 mmHg 51%
    19:00 +23°C° 0 mm 2 m/s 741 mmHg 55%
    20:00 +19°C° 0 mm 2 m/s 741 mmHg 59%
    21:00 +17°C° 0 mm 2 m/s 741 mmHg 64%
    22:00 +16°C° 0 mm 2 m/s 741 mmHg 65%
    23:00 +15°C° 0 mm 2 m/s 741 mmHg 66%

    25 Maio, Sábado

    Tempo Temperatura Precipitação Vento Pressão Humidade
    00:00 +14°C° 0 mm 2 m/s 741 mmHg 67%
    01:00 +14°C° 0 mm 2 m/s 740 mmHg 65%
    02:00 +14°C° 0 mm 2 m/s 740 mmHg 63%
    03:00 +14°C° 0 mm 2 m/s 740 mmHg 61%
    04:00 +15°C° 0 mm 2 m/s 740 mmHg 62%
    05:00 +15°C° 0 mm 2 m/s 740 mmHg 62%
    06:00 +16°C° 0 mm 2 m/s 740 mmHg 62%
    07:00 +20°C° 0 mm 3 m/s 740 mmHg 55%
    08:00 +24°C° 0 mm 3 m/s 740 mmHg 49%
    09:00 +28°C° 0 mm 4 m/s 740 mmHg 42%
    10:00 +29°C° 0 mm 4 m/s 739 mmHg 38%
    11:00 +32°C° 0 mm 4 m/s 739 mmHg 35%
    12:00 +34°C° 0 mm 4 m/s 739 mmHg 31%
    13:00 +35°C° 0 mm 5 m/s 739 mmHg 30%
    14:00 +35°C° 0 mm 5 m/s 739 mmHg 28%
    15:00 +36°C° 0 mm 5 m/s 739 mmHg 26%
    16:00 +35°C° 0 mm 4 m/s 739 mmHg 31%
    17:00 +33°C° 0 mm 4 m/s 739 mmHg 36%
    18:00 +30°C° 0 mm 3 m/s 739 mmHg 41%
    19:00 +28°C° 0 mm 3 m/s 740 mmHg 46%
    20:00 +26°C° 0 mm 3 m/s 740 mmHg 50%
    21:00 +22°C° 0 mm 3 m/s 740 mmHg 54%
    22:00 +21°C° 0 mm 3 m/s 740 mmHg 54%
    23:00 +20°C° 0 mm 2 m/s 741 mmHg 53%
    Mostrar mais